Regional Weather Roundup
Issued by NWS

Home | Current Version | Previous Version | Graphics & Text | Print | Product List | Glossary On
Versions: 1 2 3 4 5 6 7 8 9 10 11 12 13 14 15 16 17 18 19 20 21 22 23 24 25 26 27 28 29 30 31 32 33 34 35 36 37 38 39 40 41 42 43 44 45 46 47 48 49 50
000
ASUS43 KIND 201959
RWRIN

WEATHER ROUNDUP FOR INDIANA
NATIONAL WEATHER SERVICE INDIANAPOLIS IN
300 PM EST SAT JAN 20 2018

NOTE: "FAIR" INDICATES FEW OR NO CLOUDS BELOW 12,000 FEET WITH NO
SIGNIFICANT WEATHER AND/OR OBSTRUCTIONS TO VISIBILITY.

* - STATION DOES NOT REPORT WEATHER SUCH AS PRECIPITATION OR FOG.

+ - STATION NOT QUALITY CONTROLLED BY THE NATIONAL WEATHER SERVICE.
    USE DATA WITH CAUTION...ESPECIALLY DEWPOINT AND RELATIVE
    HUMIDITY OBSERVATIONS.

INZ001>003-010>013-019-020-202100-
NORTHWEST INDIANA

CITY           SKY/WX    TMP DP  RH WIND       PRES   REMARKS
GARY /AIRPORT/ MOSUNNY   46  32  57 SW10      29.93F
KNOX *+        FAIR      39  32  75 S10       29.95F WCI  32
MICHIGAN CITY+ FAIR      43  32  65 S8        29.95R
MONTICELLO +   FAIR      42  33  70 SW9       29.97F
RENSSELAER +   FAIR      43  34  70 SW15      29.96S

$$

LMZ046-743>745-202100-
SOUTHERN LAKE MICHIGAN

STATION/POSITION TIME  TEMP    WIND        PRES    WAVE
                       AIR SEA DIR/SP/G            HT
                 (UTC) (F)     (DEG/KT/KT) (MB)    (FT)
BURNS HARBOR     1940   42     200/ 12/ 14 1014.6S
MICHIGAN CITY    1930   42     190/ 11/ 12   N/A

$$

INZ004-005-014>016-021>024-202100-
NORTH CENTRAL INDIANA

CITY           SKY/WX    TMP DP  RH WIND       PRES   REMARKS
ELKHART        SUNNY     41  30  65 SW8       29.95S
GOSHEN         FAIR      39  31  72 SW12      29.96F WCI  32
PERU/GRISSOM   FAIR      42  36  80 SW10      29.98F
SOUTH BEND     FAIR      39  31  72 SW14      29.96S WCI  31

$$

INZ006>009-017-018-025>027-202100-
NORTHEAST INDIANA

CITY           SKY/WX    TMP DP  RH WIND       PRES   REMARKS
FORT WAYNE     PTSUNNY   41  33  73 SW13      29.99R
KENDALLVILLE + FAIR      40  31  70 SW8       29.96S WCI  34

$$

INZ028-029-035-036-043>045-051>053-202100-
WEST CENTRAL INDIANA

CITY           SKY/WX    TMP DP  RH WIND       PRES   REMARKS
GREENCASTLE +  CLOUDY    41  30  65 CALM      30.04S
LAFAYETTE      CLOUDY    40  33  76 SW8       29.99F WCI  34
TERRE HAUTE    CLOUDY    42  28  57 S7        30.05S

$$

INZ030>032-037>040-046>048-054>057-064-065-202100-
CENTRAL INDIANA

CITY           SKY/WX    TMP DP  RH WIND       PRES   REMARKS
ANDERSON       PTSUNNY   43  32  65 S12       30.03S
COLUMBUS       CLOUDY    45  25  45 S12       30.06R
INDIANAPOLIS   CLOUDY    43  32  65 SW8       30.04R
-EAGLE CREEK   CLOUDY    43  30  60 S6        30.02S
MT COMFORT *+  CLOUDY    43  36  75 SW10      30.04R
SHELBYVILLE    CLOUDY    42  29  59 S9        30.04R

$$

INZ033-034-041-042-049-050-058-059-202100-
EAST CENTRAL INDIANA

CITY           SKY/WX    TMP DP  RH WIND       PRES   REMARKS
MUNCIE         FAIR      44  31  60 SW12      30.01S
RICHMOND +     PTSUNNY   41  32  70 SW9       30.04S

$$

INZ060-061-067>069-081>083-085>088-202100-
SOUTHWEST INDIANA

CITY           SKY/WX    TMP DP  RH WIND       PRES   REMARKS
EVANSVILLE     CLOUDY    45  40  82 S13       30.09S
HUNTINGBURG +  CLOUDY    44  40  85 SW12      30.09S

$$

INZ062-063-066-070>080-084-089>092-202100-
SOUTH CENTRAL AND SOUTHEAST INDIANA

CITY           SKY/WX    TMP DP  RH WIND       PRES   REMARKS
BLOOMINGTON    CLOUDY    45  30  55 W9        30.05R
FRENCH LICK *+ CLOUDY    45  30  57 SW9       30.07F
SEYMOUR +      CLOUDY    48  32  53 SW7       30.07S

$$





USA.gov is the U.S. government's official web portal to all federal, state and local government web resources and services.